Location: Bois de la Silve
(44.4667°N, 6.7833°E)
Time: 20:23:22
(UTC+00:00)

SL-08 R/B - Pass Details

Date: 14 July 2020
Orbit: 943 x 1009 km, 83.0° (Epoch: 14 August)

Event Time Altitude Azimuth Distance (km) Brightness Sun altitude
Exits shadow 01:28:13 30° 182° (S) 1,684 5.2 -19.3°
Maximum altitude 01:31:34 85° 97° (E) 979 4.5 -19.1°
Drops below altitude 10° 01:37:45 10° 9° (N) 2,700 7.9 -18.5°
Sets 01:40:14 0° 9° (N) 3,642 8.8 -18.3°
